Location: Gleizolles
(44.4833°N, 6.7667°E)
Time: 15:17:57
(UTC+00:00)

Tiros 1 - Pass Details

Date: 26 June 2024
Orbit: 624 x 656 km, 48.4° (Epoch: 13 July)

Event Time Altitude Azimuth Distance (km) Brightness Sun altitude
Rises 01:58:37 0° 288° (WNW) 2,909 10.3 -14.7°
Reaches altitude 10° 02:00:58 10° 291° (WNW) 2,004 9.5 -14.5°
Maximum altitude 02:05:32 61° 13° (NNE) 718 7.6 -14.0°
Drops below altitude 10° 02:10:08 10° 94° (E) 2,018 10.1 -13.6°
Sets 02:12:29 0° 98° (E) 2,931 10.9 -13.3°
